STARLINK-11552, 62907

Orbit data source: Space-Track

STARLINK-11552, 62907 is a payload satellite owned by SpaceX/Seattle (US) in LEO that was launched on Sat, 08 Feb 2025 UTC via an FALCON 9 launch vehicle from the Air Force Eastern Test Range (AFETR). Payload-class satellites include a variety of spacecraft equipped with specific instruments for various scientific and technological missions. These include communications satellites like Starlink; space stations such as the ISS; scientific satellites like the Hubble; Earth observation satellites from companies like Planet Labs, Umbra, and HawkEye 360; GPS; miniature CubeSats for education and research; and military/defense satellites.

Loading next visibility...
Identifier
62907, 2025-027A
Orbit
LEO
Country
Flag of USUS
Related business
Manufacturer
SpaceX/Seattle
Mission
Operational Commercial Communications
Bus & Motor
STARLINK V2MD, Unknown motor
Mass
960 kg wet, ~910 kg dry
Launch date (UTC)
2025-02-08 (7 months ago)
Launch vehicle
FALCON 9
Launch site
Air Force Eastern Test Range (AFETR)
Object type
Payload
Rocket body
Debris
Shape & HBR
Box + 2 Pan, 14.5 m
Radar Cross Section
36.964 m², Large (>1 m²)

Expand to show TLE details & history
Last TLE update: 6 hours ago

TLE from 6 hours ago
0 STARLINK-11552
1 62907U 25027A   25259.23505481  .00098666  00000-0  76186-3 0  9997
2 62907  42.9995 319.3381 0001430 256.7154 103.3554 15.70885584 35752
Epoch: 2025-09-16T05:38Z
TLE epoch observation values (Epoch: 2025-09-16T05:38:28.735Z)
Latitude
-0.00004°
Longitude
-120.70994°
Altitude
356.358 km
Speed
7.697 km/s
True Right ascension
21h 17m 21s
True Declination
0° 00' 00"
Sunlit
Object was in full shadow at epoch
Visualization orbit readout
Latitude
Unknown
Longitude
Unknown
Altitude
Unknown
Speed
Unknown
Apparent Right ascension
Unknown
Apparent Declination
Unknown
Sunlit
N/A
Visualization observer readout
Local Sidereal Time
04:37:25
Azimuth
Unknown
Elevation
Unknown
Doppler factor
Unknown
Orbital elements
Apogee altitude
359.31 km
Perigee altitude
357.383 km
Semi-major axis
6,736.483 km
Eccentricity
0.00014
Inclination
42.9995°
RAAN
319.3381°
Arg. of periapsis
256.7154°
True anomaly
103.37134°
Mean anomaly
103.3554°
Eccentric anomaly
103.36337°
Mean motion
3.92548 °/min
Orbital period
91.71 mins
BSTAR
0.00076186
Loading maneuver chart data...
Computing Atmospheric mass density...
Loading historical data...
Loading historical data...
Loading historical data...
Loading historical data...
Loading historical data...
Loading historical data...
Loading historical data...

Documentation

Showing up to 5 results
|